Zurück zum Katalog

IABS R/B

AktivGEO
NORAD 26054·ROCKET BODY·🇺🇸 United States

Gestartet Jan 21, 2000 von Cape Canaveral Space Force Station

Loading…

TLE

AktuellSource: Space-Track

Epoche: Sep 12, 2026, 21:49 UTC

1 26054U 00001C   26255.90921313 -.00000007  00000-0  00000-0 0  9994
2 26054  14.1254 358.8811 0027870 331.1681  28.6995  1.01181525 26974

Verfolge IABS R/B in Echtzeit mit AllMySat

Download on the App Store